| time (UTC) | temp C | wind direction | speed KPH | gust KPH | rain 1hr cm | rain 24hr cm | rain mn cm | humidity % | barometer mb |
| 20260505221526 | 27 | 242 | 3.2 | 11.3 | 0.00 | 0.00 | 0.00 | 74 | 1007.8 |
| 20260505220028 | 28 | 148 | 3.2 | 6.4 | 0.00 | 0.00 | 0.00 | 73 | 1007.7 |
| 20260505214527 | 28 | 133 | 3.2 | 12.9 | 0.00 | 0.00 | 0.00 | 72 | 1008.0 |
| 20260505213019 | 28 | 242 | 6.4 | 14.5 | 0.00 | 0.00 | 0.00 | 72 | 1008.3 |
| 20260505211518 | 28 | 215 | 3.2 | 12.9 | 0.00 | 0.00 | 0.00 | 73 | 1008.5 |
| 20260505210023 | 28 | 199 | 3.2 | 12.9 | 0.00 | 0.00 | 0.00 | 73 | 1008.6 |
| 20260505204513 | 28 | 132 | 1.6 | 17.7 | 0.00 | 0.00 | 0.00 | 73 | 1008.8 |
| 20260505203011 | 28 | 248 | 4.8 | 16.1 | 0.00 | 0.00 | 0.00 | 72 | 1009.1 |
| 20260505201510 | 28 | 248 | 1.6 | 16.1 | 0.00 | 0.00 | 0.00 | 74 | 1009.2 |
| 20260505200013 | 28 | 106 | 3.2 | 11.3 | 0.00 | 0.00 | 0.00 | 72 | 1009.4 |
| 20260505194506 | 28 | 246 | 6.4 | 17.7 | 0.00 | 0.00 | 0.00 | 72 | 1009.7 |
| 20260505193003 | 27 | 141 | 4.8 | 14.5 | 0.00 | 0.00 | 0.00 | 74 | 1009.8 |
| 20260505191501 | 27 | 229 | 1.6 | 11.3 | 0.00 | 0.00 | 0.00 | 75 | 1009.9 |
| 20260505184559 | 27 | 167 | 4.8 | 14.5 | 0.00 | 0.00 | 0.00 | 75 | 1010.1 |
| 20260505183055 | 26 | 138 | 6.4 | 19.3 | 0.00 | 0.00 | 0.00 | 77 | 1010.2 |
| 20260505181557 | 26 | 135 | 1.6 | 6.4 | 0.00 | 0.00 | 0.00 | 78 | 1010.3 |
| 20260505180049 | 26 | 147 | 3.2 | 11.3 | 0.00 | 0.00 | 0.00 | 78 | 1010.4 |
| 20260505174555 | 25 | 100 | 1.6 | 11.3 | 0.00 | 0.00 | 0.00 | 79 | 1010.5 |
| 20260505173048 | 26 | 129 | 1.6 | 14.5 | 0.00 | 0.00 | 0.00 | 79 | 1010.6 |
| 20260505171551 | 26 | 229 | 3.2 | 19.3 | 0.00 | 0.00 | 0.00 | 79 | 1010.8 |
| 20260505170044 | 25 | 300 | 1.6 | 8.0 | 0.00 | 0.00 | 0.00 | 81 | 1010.7 |
| 20260505164552 | 25 | 236 | 1.6 | 4.8 | 0.00 | 0.00 | 0.00 | 81 | 1010.9 |
| 20260505163050 | 25 | 238 | 0.0 | 4.8 | 0.00 | 0.00 | 0.00 | 82 | 1011.0 |
| 20260505161539 | 24 | 122 | 0.0 | 8.0 | 0.00 | 0.00 | 0.00 | 83 | 1010.9 |
| 20260505153036 | 24 | 134 | 4.8 | 14.5 | 0.00 | 0.00 | 0.00 | 80 | 1010.7 |
| 20260505151536 | 24 | 236 | 3.2 | 9.7 | 0.00 | 0.00 | 0.00 | 80 | 1010.6 |
| 20260505130112 | -17 | 0.0 | 0.0 | 0.00 | 0.00 | 0.00 | 1010.3 | ||
| 20260505124601 | -17 | 0.0 | 0.0 | 0.00 | 0.00 | 0.00 | 1009.9 | ||
| 20260505123051 | -17 | 0.0 | 0.0 | 0.00 | 0.00 | 0.00 | 1009.8 | ||
| 20260505121548 | -17 | 0.0 | 0.0 | 0.00 | 0.00 | 0.00 | 1010.0 | ||
| 20260505120045 | -17 | 0.0 | 0.0 | 0.00 | 0.00 | 0.00 | 1009.8 | ||
| 20260505114537 | -17 | 0.0 | 0.0 | 0.00 | 0.00 | 0.00 | 1009.5 | ||
| 20260505113032 | -17 | 0.0 | 0.0 | 0.00 | 0.00 | 0.00 | 1009.8 | ||
| 20260505111535 | -17 | 0.0 | 0.0 | 0.00 | 0.00 | 0.00 | 1009.9 | ||
| 20260505101510 | -17 | 0.0 | 0.0 | 0.00 | 0.00 | 0.00 | 1009.8 | ||
| 20260505100011 | -17 | 220 | 0.0 | 8.0 | 0.00 | 0.00 | 0.00 | 84 | 1009.9 |
| 20260505094503 | 21 | 179 | 1.6 | 8.0 | 0.00 | 0.00 | 0.00 | 84 | 1009.9 |
| 20260505093002 | 21 | 226 | 0.0 | 1.6 | 0.00 | 0.00 | 0.00 | 84 | 1009.9 |
| 20260505091601 | 21 | 119 | 0.0 | 3.2 | 0.00 | 0.00 | 0.00 | 83 | 1010.1 |
| 20260505090059 | 21 | 131 | 0.0 | 4.8 | 0.00 | 0.00 | 0.00 | 83 | 1010.2 |
| 20260505084559 | 21 | 202 | 0.0 | 9.7 | 0.00 | 0.00 | 0.00 | 83 | 1010.2 |
| 20260505083058 | 21 | 136 | 0.0 | 4.8 | 0.00 | 0.00 | 0.00 | 82 | 1010.2 |
| 20260505081608 | 21 | 255 | 0.0 | 6.4 | 0.00 | 0.00 | 0.00 | 82 | 1010.5 |
| 20260505080104 | 21 | 136 | 0.0 | 6.4 | 0.00 | 0.00 | 0.00 | 82 | 1010.6 |
| 20260505074553 | 21 | 148 | 0.0 | 4.8 | 0.00 | 0.00 | 0.00 | 81 | 1010.7 |
| 20260505073052 | 21 | 136 | 0.0 | 4.8 | 0.00 | 0.00 | 0.00 | 81 | 1010.8 |
| 20260505071554 | 21 | 60 | 0.0 | 4.8 | 0.00 | 0.00 | 0.00 | 81 | 1011.0 |
| 20260505070047 | 21 | 238 | 0.0 | 4.8 | 0.00 | 0.00 | 0.00 | 80 | 1011.0 |
| 20260505064546 | 21 | 222 | 0.0 | 6.4 | 0.00 | 0.00 | 0.00 | 80 | 1011.3 |
| 20260505063044 | 21 | 136 | 0.0 | 3.2 | 0.00 | 0.00 | 0.00 | 80 | 1011.3 |
| 20260505061542 | 21 | 142 | 1.6 | 12.9 | 0.00 | 0.00 | 0.00 | 80 | 1011.4 |
| 20260505060044 | 21 | 150 | 1.6 | 6.4 | 0.00 | 0.00 | 0.00 | 79 | 1011.5 |
| 20260505054552 | 21 | 233 | 1.6 | 8.0 | 0.00 | 0.00 | 0.00 | 79 | 1011.4 |
| 20260505053053 | 21 | 142 | 1.6 | 6.4 | 0.00 | 0.00 | 0.00 | 78 | 1011.8 |
| 20260505051541 | 21 | 135 | 0.0 | 6.4 | 0.00 | 0.00 | 0.00 | 78 | 1012.0 |
| 20260505041532 | 22 | 214 | 1.6 | 9.7 | 0.00 | 0.00 | 0.00 | 76 | 1011.9 |
| 20260505040040 | 22 | 258 | 3.2 | 9.7 | 0.00 | 0.00 | 0.00 | 75 | 1011.9 |
| 20260505034531 | 22 | 133 | 6.4 | 14.5 | 0.00 | 0.00 | 0.00 | 75 | 1012.0 |
| 20260505033039 | 22 | 190 | 1.6 | 9.7 | 0.00 | 0.00 | 0.00 | 75 | 1012.1 |
| 20260505031530 | 22 | 185 | 1.6 | 8.0 | 0.00 | 0.00 | 0.00 | 74 | 1012.3 |
| 20260505030029 | 22 | 240 | 1.6 | 14.5 | 0.00 | 0.00 | 0.00 | 74 | 1012.2 |
| 20260505024528 | 23 | 282 | 1.6 | 11.3 | 0.00 | 0.00 | 0.00 | 73 | 1012.0 |
| 20260505023027 | 23 | 187 | 4.8 | 12.9 | 0.00 | 0.00 | 0.00 | 73 | 1012.0 |
| 20260505021527 | 23 | 120 | 4.8 | 11.3 | 0.00 | 0.00 | 0.00 | 72 | 1012.0 |
| 20260505020026 | 23 | 219 | 1.6 | 11.3 | 0.00 | 0.00 | 0.00 | 72 | 1011.8 |
| 20260505014525 | 23 | 179 | 1.6 | 12.9 | 0.00 | 0.00 | 0.00 | 72 | 1011.6 |
| 20260505013025 | 23 | 259 | 1.6 | 6.4 | 0.00 | 0.00 | 0.00 | 72 | 1011.4 |
| 20260505011525 | 23 | 147 | 0.0 | 12.9 | 0.00 | 0.00 | 0.00 | 71 | 1011.3 |
| 20260505010023 | 23 | 205 | 0.0 | 6.4 | 0.00 | 0.00 | 0.00 | 70 | 1011.4 |
| 20260505004522 | 24 | 121 | 0.0 | 6.4 | 0.00 | 0.00 | 0.00 | 69 | 1011.5 |
| 20260505003022 | 24 | 122 | 1.6 | 11.3 | 0.00 | 0.00 | 0.00 | 69 | 1011.4 |
| 20260505001521 | 25 | 139 | 1.6 | 11.3 | 0.00 | 0.00 | 0.00 | 68 | 1011.4 |
| 20260505000019 | 25 | 118 | 3.2 | 16.1 | 0.00 | 0.00 | 0.00 | 68 | 1011.5 |
| 20260504234518 | 25 | 165 | 1.6 | 11.3 | 0.00 | 0.00 | 0.00 | 67 | 1011.7 |
| 20260504233018 | 25 | 212 | 1.6 | 9.7 | 0.00 | 0.00 | 0.00 | 66 | 1011.7 |
| 20260504231516 | 26 | 146 | 1.6 | 17.7 | 0.00 | 0.00 | 0.00 | 65 | 1011.7 |
| 20260504230015 | 26 | 173 | 3.2 | 12.9 | 0.00 | 0.00 | 0.00 | 64 | 1012.0 |
| 20260504224513 | 26 | 205 | 3.2 | 16.1 | 0.00 | 0.00 | 0.00 | 63 | 1011.9 |
| 20260504223012 | 26 | 135 | 1.6 | 11.3 | 0.00 | 0.00 | 0.00 | 62 | 1012.2 |